Regional Weather Roundup
Issued by NWS

Home | Current Version | Previous Version | Graphics & Text | Print | Product List | Glossary On
Versions: 1 2 3 4 5 6 7 8 9 10 11 12 13 14 15 16 17 18 19 20 21 22 23 24 25 26 27 28 29 30 31 32 33 34 35 36 37 38 39 40 41 42 43 44 45 46 47 48 49 50
000
ASUS43 KFSD 251202
RWRSD

WEATHER ROUNDUP FOR SOUTH DAKOTA
NATIONAL WEATHER SERVICE SIOUX FALLS SD
600 AM CST TUE NOV 25 2014

NOTE: "FAIR" INDICATES FEW OR NO CLOUDS BELOW 12,000 FEET WITH NO
SIGNIFICANT WEATHER AND/OR OBSTRUCTIONS TO VISIBILITY.


SDZ001>005-009-010-012>017-251300-
NORTHWEST AND NORTH CENTRAL SOUTH DAKOTA

CITY           SKY/WX    TMP DP  RH WIND       PRES   REMARKS
BUFFALO          N/A     31  23  72 SW12      29.76F WCI  22
FAITH            N/A     23  19  85 S10       29.88F WCI  12
MOBRIDGE       PTCLDY    21  19  92 CALM      29.89F
$$

SDZ012>016-024>037-041>051-057-063-072>074-251300-
SOUTHWEST AND SOUTH CENTRAL SOUTH DAKOTA

CITY           SKY/WX    TMP DP  RH WIND       PRES   REMARKS
RAPID CTY ARPT CLOUDY    25  19  78 E5        29.89F WCI  19
PIERRE         CLEAR     24  21  88 SW7       29.96F WCI  16
CUSTER         CLOUDY    21  17  84 W7        29.85F WCI  12
PHILIP         MOCLDY   N/A N/A N/A CALM      29.95F
PINE RIDGE     CLOUDY    23  20  88 CALM      29.96F
WINNER         FAIR      27  22  81 SW7       29.99F WCI  19
$$

SDZ004>011-016>023-039-040-251300-
NORTHEAST SOUTH DAKOTA

CITY           SKY/WX    TMP DP  RH WIND       PRES   REMARKS
ABERDEEN       CLOUDY    22  16  78 S6        29.96F WCI  14
WATERTOWN      CLOUDY    15   8  73 SW6       29.96F WCI   6
SISSETON         N/A     22  11  62 W7        29.96F WCI  13
$$

SDZ017-020-022-023-036>040-048>070-251300-
SOUTHEAST SOUTH DAKOTA

CITY           SKY/WX    TMP DP  RH WIND       PRES   REMARKS
SIOUX FALLS    CLEAR     12   6  77 CALM      30.04S
HURON          CLOUDY    21  15  78 S6        30.00F WCI  13
MITCHELL       CLOUDY    22  16  78 S3        30.04F
YANKTON        CLOUDY    18  10  73 CALM      30.07F
$$

ABBREVIATIONS USED IN REMARKS
   TC - TEMPERATURE IN CELSIUS
  WCI - WIND CHILL INDEX
   HX - HEAT INDEX
  VSB - VISIBILITY




USA.gov is the U.S. government's official web portal to all federal, state and local government web resources and services.